Other Surface Observations
Issued by NWS

Home | Current Version | Previous Version | Text Only | Print | Product List | Glossary On
Versions: 1 2 3 4 5 6 7 8 9 10 11 12 13 14 15 16 17 18 19 20 21 22 23 24 25 26 27 28 29 30 31 32 33 34 35 36 37 38 39 40 41 42 43 44 45 46 47 48 49 50
000
SXUS52 KTAE 201206
OSOTAE
OSOTAE
North Florida/South Alabama/Southwest Georgia Weather Roundup
National Weather Service Tallahassee Florida
800 AM EDT WED SEP 20 2017

Note: "fair" indicates few or no clouds below 12,000 feet with no
significant weather and/or obstructions to visibility.

!FLZ017-115-028-034-025-201300
...North Florida...

CITY           SKY/WX    TMP DP  RH WIND       PRES   REMARKS
TALLAHASSEE    MOCLDY    74  73  97 CALM      30.02R
APALACHICOLA   CLEAR     76  76 100 CALM      30.01R
PERRY          CLOUDY    73  72  96 CALM      30.03R FOG
CROSS CITY     CLEAR     70  69  96 CALM      30.07R
JACKSONVILLE   MOCLDY    70  70 100 CALM      30.03R
$$

!FLZ112-006-005-002-011-201300
...Florida Panhandle...

CITY           SKY/WX    TMP DP  RH WIND       PRES   REMARKS
MARIANNA       CLOUDY    74  72  93 CALM      30.02R
BONIFAY        NOT AVBL
PANAMA CITY NW FAIR      73  72  96 CALM      30.01R FOG
TYNDALL AFB    CLEAR     79  75  89 N6        30.01R
TYND DRONE APT FAIR      79  76  89 CALM      30.01R
DE FUNIAK SPR  FAIR      72  71  97 N3        30.03R
EGLIN AFB      PTCLDY    75  73  93 CALM      30.00R
DESTIN         PTCLDY    80  74  81 CALM      30.00R
HURLBURT       CLEAR     74  72  94 CALM      29.99R
CRESTVIEW      CLEAR     71  69  93 CALM      30.02R FOG
PENSACOLA      PTCLDY    77  74  90 N3        30.00R FOG
$$

!ALZ063-066-201300
...South Alabama...

CITY           SKY/WX    TMP DP  RH WIND       PRES   REMARKS
DOTHAN         FOG       70  70 100 CALM      30.06R VSB 1/2
OZARK CAIRNS   FOG       69  68  97 CALM      30.02R VSB 1/2
FT RUCKER HELI MOCLDY    69  69  99 CALM      30.02R
RUCKER HELI 3  FAIR      69  69  98 CALM      30.02R
RUCKER HELI 2  CLOUDY    69  69  98 CALM      30.01S FOG
FLORALA APT    NOT AVBL
ANDALUSIA      CLEAR     72  69  90 CALM      30.02R FOG
TROY           FOG       67  67 100 CALM      30.04R VSB 1/4
EUFALA         FAIR      70  69  97 CALM      30.02R FOG
MOBILE         MOCLDY    74  72  93 CALM      30.01R
$$

!GAZ120>161-201300
...Southwest and South Central Georgia...

CITY           SKY/WX    TMP DP  RH WIND       PRES   REMARKS
THOMASVILLE    MOCLDY    73  73 100 CALM      30.03R FOG
BAINBRIDGE     CLOUDY    73  73 100 CALM      30.02R
MOODY AFB      PTCLDY    72  71  95 CALM      30.01R
VALDOSTA       CLEAR     71  70  96 S3        30.02R FOG
MOULTRIE       PTCLDY    72  72 100 CALM      30.04R FOG
BLAKELY        PTCLDY    72  70  94 CALM      30.03R FOG
ALBANY         MOCLDY    74  73  97 CALM      30.04R FOG
TIFTON         MOCLDY    71  71 100 CALM      30.02R FOG
FITZGERALD     FAIR      72  72 100 CALM      30.05R FOG
CORDELE        FAIR      75  72  90 CALM      30.03R
AMERICUS       PTSUNNY   70  70 100 CALM      30.04R FOG
HOMERVILLE     FAIR      70  70 100 CALM      30.03R
$$

!GMZ750-755-770-775-201300
...Coastal and Buoy Obs...

STATION/POSITION TIME  TEMP    WIND        PRES    VSBY  WAVE
                       AIR SEA DIR/SP/G                  HT/PER
                 (UTC) (F)     (DEG/KT/KT) (MB)    (MI)  (FT/S)
KEATON BEACH     1200   75      70/  2/  3 1016.2R
CEDAR KEY        1100   80     190/  6/  7 1016.3R
C TOWER          1200   81                 1016.8R
APALACHICOLA BUO 1150   81 81  350/  4/  6 1015.8R         0
PANAMA CITY BUOY 1150   81 83  300/  4/  6 1015.7R         0
MOBILE BUOY      1150   82     220/  8/ 10 1016.0R         1/ 5
ORANGE BCH AL BU 1050   82 83  240/ 10/ 12 1014.8
$$




USA.gov is the U.S. government's official web portal to all federal, state and local government web resources and services.